Regional Weather Roundup
Issued by NWS Midland/Odessa, TX

Skip options and go directly to product.
Home | Oldest Version | Previous Version | Current Version | All | Text Only | Save Text | Print | Product List | Glossary On

Skip product version selection by date and time.   
654
ASUS44 KMAF 310910
RWRMAF
MIDLAND AREA WEATHER ROUNDUP
NATIONAL WEATHER SERVICE MIDLAND TX
400 AM CDT TUE MAR 31 2015

...IN SOUTHWEST TEXAS AND SOUTHEAST NEW MEXICO...

CITY           SKY/WX    TMP DP  RH WIND       PRES   REMARKS
ALPINE         CLOUDY    60  44  55 W8        30.16F
ANDREWS        FAIR      58  56  92 SW9       30.03F
ARTESIA        PTCLDY    48  45  87 CALM      30.04F
BIG SPRING     MOCLDY    64  56  77 S12       30.03F
CARLSBAD       MOCLDY    52  47  83 N8        30.03F
DRYDEN           N/A     64  59  83 N7        30.02F
FORT STOCKTON  CLOUDY    65  51  60 SW10      30.02F
GUAD PASS      MOCLDY    64  28  25 SW9       30.15F
HOBBS          PTCLDY    50  48  93 W5        30.05F
MARFA          CLOUDY    55  45  67 CALM      30.16F
MIDLAND AIRPK  MOCLDY    64  57  78 S7        30.02F
MIDLAND INTL   MOCLDY    63  57  81 S8        30.02F
ODESSA         MOCLDY    63  56  78 SW10      30.03F
PECOS          CLOUDY    58  53  82 NW6       30.00F
PRESIDIO       FAIR      71  50  48 CALM      30.04R
SEMINOLE       PTCLDY    51  47  85 NW5       30.05F
SNYDER         MOCLDY    60  55  81 S7        30.01F
WINK           CLOUDY    60  55  83 SE8       30.00F
$$
...OTHER STATIONS IN TEXAS...

CITY           SKY/WX    TMP DP  RH WIND       PRES   REMARKS
ABILENE        MOCLDY    66  58  75 S12       29.99F
AMARILLO       CLEAR     51  44  77 S10       30.02F
AUSTIN         CLOUDY    66  64  93 S12       30.03F
BROWNSVILLE    PTCLDY    68  67  96 SE8       30.04F
CORPUS CHRISTI CLOUDY    66  64  93 SE7       30.04F
DALLAS FTW     MOCLDY    65  62  90 S9        29.95F
DEL RIO        CLOUDY    68  64  87 SE10      30.00F
EL PASO        MOCLDY    66  30  26 SE6       30.05F
HOUSTON INT    PTCLDY    65  63  93 S3        30.06F
LUBBOCK        PTCLDY    50  45  83 SW5       30.01F
SAN ANGELO     MOCLDY    67  61  81 S14       30.00F
SAN ANTONIO    CLOUDY    67  64  90 S10       30.05F
WACO           MOCLDY    65  62  90 S13       30.01S
WICHITA FALLS  NOT AVBL
$$
...OTHER LOCATIONS IN NEW MEXICO...

CITY           SKY/WX    TMP DP  RH WIND       PRES   REMARKS
ALAMAGORDO     MOCLDY    59  27  29 SW5       30.07F
ALBUQUERQUE    MOCLDY    53  24  32 E3        30.14F
CANNON AFB     CLEAR     55  45  68 W13       30.05F
CLOVIS         CLEAR     50  39  66 W10       30.05F
HOLLOMAN AFB   MOCLDY    56  29  35 N8        30.06F
ROSWELL        PTCLDY    50  45  83 W3        30.04F
RUIDOSO        PTCLDY    55  25  30 W13       30.23F
SANTA FE       CLEAR     47  22  37 NE8       30.18S
TRUTH OR CONSE PTCLDY    58  27  30 W10       30.10F
TUCUMCARI      CLEAR     49  34  56 VRB3      30.03F
$$

USA.gov is the U.S. government's official web portal to all federal, state and local government web resources and services.